Погода в Панской Слободе

Россия / Ульяновская область     54˚06′51″N   48˚29′27″E
темп.,
°C
ветер,
м/с
пор.,
м/с
влажн.,
%
обл.,
%
осадки,
мм/ч
давл.,
гПа
погр.,
м
18 января, пн
пн1801:00−24˚з11987 0.0 101820
04:00−24˚ссз119838 0.0 102020
07:00−25˚св119981 0.0 102020
10:00−23˚св129789 0.0 102120
13:00−20˚всв119580 0.0 1020146
16:00−21˚св119890 0.0 102072
19:00−21˚св2398100 0.0 1019119
22:00−20˚ссв2398100 0.1 1019138
19 января, вт
вт1901:00−20˚ссв3499100 0.8 1017177
04:00−20˚с3499100 1.3 1017190
07:00−20˚с3599100 0.4 1016211
10:00−20˚с3599100 0.6 1015215
13:00−18˚сз2395100 0.1 1015262
16:00−19˚сз2398100 0.1 101490
19:00−21˚сз2298100 0.0 101532
22:00−22˚зсз2299100 0.0 101526
20 января, ср
ср2001:00−22˚з2298100 0.0 101544
04:00−20˚з2598100 0.1 1015185
07:00−20˚з3697100 0.1 1015199
10:00−20˚з3697100 0.1 1016242
13:00−18˚з4695100 0.3 1016334
16:00−17˚зсз4894100 0.4 1016361
19:00−17˚зсз4994100 0.1 1018329
22:00−16˚з5994100 0.2 1019327
21 января, чт
чт2101:00−17˚з499592 0.1 1020236
04:00−18˚з499690 0.1 1021208
07:00−17˚з499592 0.1 1022254
10:00−17˚з499591 0.1 1023221
13:00−14˚зюз489487 0.0 1023249
16:00−14˚зюз499392 0.0 1022232
19:00−14˚юз51190100 0.0 1022246
22:00−13˚юз71583100 0.0 1020340
22 января, пт
пт2201:00−11˚юз101987100 0.1 1016501
04:00−8˚зюз101892100 1.5 1013700
07:00−8˚зюз101890100 0.7 1010626
10:00−3˚зюз101988100 1.1 1009795
13:00+1˚з91698100 0.3 1008888
16:00+1˚з81598100 0.4 1008847
19:00+1˚зсз71398100 0.3 1010655
22:00+1˚зсз51198100 0.6 1012489